Location: Binningen
(47.7924°N, 8.7261°E)
Time: 21:59:15
(UTC+00:00)

ERS-1 Rocket - Pass Details

Date: 17 May 2021
Orbit: 753 x 757 km, 98.4° (Epoch: 24 June)

Event Time Altitude Azimuth Distance (km) Brightness Sun altitude
Exits shadow 21:29:15 23° 196° (SSW) 1,579 4.2 -18.1°
Maximum altitude 21:32:11 49° 261° (W) 977 3.6 -18.3°
Drops below altitude 10° 21:37:04 10° 336° (NNW) 2,295 6.7 -18.7°
Sets 21:39:28 0° 342° (NNW) 3,225 7.9 -18.9°
